Durango, CO

11:49 AM MDT on July 25, 2017 (GMT -0600)
Durango-La Plata County

Weather History for KDRO - October, 2011

Change the Weather History Date:

Thursday, October 6, 2011

  Actual Average Record
Temperature  
Mean Temperature 42 °F 51 °F  
Max Temperature 51 °F 67 °F 84 °F (1979)
Min Temperature 33 °F 34 °F 21 °F (1998)
Degree Days  
Heating Degree Days 24 14  
Month to date heating degree days 79  
Since 1 July heating degree days 303  
Cooling Degree Days 0 0  
Month to date cooling degree days 0  
Year to date cooling degree days 243  
Moisture  
Dew Point 37 °F    
Average Humidity 90    
Maximum Humidity 100    
Minimum Humidity 61    
Precipitation  
Precipitation 0.26 in 0.05 in 0.35 in (2006)
Month to date precipitation 0.30  
Year to date precipitation 12.18  
Sea Level Pressure  
Sea Level Pressure 29.82 in    
Wind  
Wind Speed 14 mph (SSW)    
Max Wind Speed 28 mph    
Max Gust Speed 45 mph    
Visibility 8 miles    
Events Rain , Snow    
T = Trace of Precipitation, MM = Missing Value Source: NWS Daily Summary

Daily Weather History Graph

Daily Weather History Graph

Search for Another Location

Airport or City:

Trip Planner

Search our weather history database for the weather conditions in past years. The results will help you decide how hot, cold, wet, or windy it might be!

Date:

Astronomy

Oct. 06, 2011 Rise Set
Actual Time 7:10 AM MDT 6:47 PM MDT
Civil Twilight 6:44 AM MDT 7:13 PM MDT
Nautical Twilight 6:14 AM MDT 7:43 PM MDT
Astronomical Twilight 5:44 AM MDT 8:13 PM MDT
Moon 3:56 PM MDT (10/6) 2:08 AM MDT (10/6)
Length of Visible Light 12h 28m
Length of Day
11h 36m
Waxing Gibbous, 76% of the Moon is Illuminated
Oct 6
Waxing Gibbous
Oct 11
Full
Oct 19
Last Quarter
Oct 26
New
Nov 2
First Quarter

Hourly Weather History & Observations

Time (MDT) Temp. Windchill Dew Point Humidity Pressure Visibility Wind Dir Wind Speed Gust Speed Precip Events Conditions
12:53 AM 48.9 °F - 39.9 °F 71% 29.76 in 10.0 mi SSW 20.7 mph 31.1 mph 0.02 in Rain Light Rain
1:53 AM 50.0 °F - 37.9 °F 63% 29.72 in 10.0 mi SW 11.5 mph 20.7 mph 0.02 in Rain Light Rain
3:53 AM 50.0 °F - 45.0 °F 83% 29.68 in 10.0 mi SSW 13.8 mph 28.8 mph 0.01 in Rain Light Rain
4:53 AM 48.9 °F - 46.9 °F 93% 29.66 in 10.0 mi SSE 4.6 mph - 0.01 in   Overcast
6:53 AM 48.9 °F - 41.0 °F 74% 29.62 in 10.0 mi SSE 5.8 mph - 0.00 in   Overcast
7:53 AM 50.0 °F - 37.9 °F 63% 29.61 in 10.0 mi South 10.4 mph 18.4 mph N/A   Overcast
9:53 AM 50.0 °F - 37.0 °F 61% 29.56 in 10.0 mi South 27.6 mph 40.3 mph 0.00 in Rain Light Rain
10:07 AM 42.8 °F 34.3 °F 39.2 °F 87% 29.73 in 2.5 mi West 19.6 mph 44.9 mph 0.03 in Rain Rain
10:20 AM 41.0 °F 33.5 °F 39.2 °F 93% 29.74 in 6.0 mi West 13.8 mph - 0.05 in Rain Rain
10:34 AM 39.2 °F 30.2 °F - N/A% 29.75 in 4.0 mi West 17.3 mph 25.3 mph 0.06 in Rain Rain
10:53 AM 37.9 °F 26.3 °F - N/A% 29.72 in 3.0 mi West 26.5 mph 34.5 mph 0.11 in Rain Rain
11:00 AM 35.6 °F 23.7 °F - N/A% 29.80 in 3.0 mi West 24.2 mph 34.5 mph 0.02 in Rain Rain
11:06 AM 35.6 °F 24.8 °F 35.6 °F 100% 29.80 in 2.5 mi West 19.6 mph 31.1 mph 0.03 in Snow Light Snow
11:11 AM 35.6 °F 25.5 °F 35.6 °F 100% 29.80 in 1.8 mi West 17.3 mph 28.8 mph 0.04 in Snow Light Snow
11:14 AM 33.8 °F 23.2 °F 33.8 °F 100% 29.81 in 1.2 mi WSW 17.3 mph 26.5 mph 0.05 in Snow Light Snow
11:24 AM 33.8 °F 23.9 °F 33.8 °F 100% 29.82 in 0.8 mi WSW 15.0 mph - 0.06 in Snow Light Snow
11:31 AM 33.8 °F 24.3 °F 33.8 °F 100% 29.82 in 1.2 mi WSW 13.8 mph - 0.07 in Snow Light Snow
11:39 AM 33.8 °F 23.5 °F 33.8 °F 100% 29.84 in 2.0 mi WSW 16.1 mph - 0.07 in Snow Light Snow
11:48 AM 35.6 °F 24.8 °F - N/A% 29.84 in 3.0 mi West 19.6 mph 27.6 mph 0.08 in Snow Light Snow
11:53 AM 35.1 °F 23.8 °F - N/A% 29.78 in 3.0 mi West 20.7 mph 26.5 mph 0.08 in Snow Light Snow
12:03 PM 35.6 °F 24.0 °F 35.6 °F 100% 29.85 in 7.0 mi West 23.0 mph 28.8 mph 0.00 in Snow Light Snow
12:08 PM 35.6 °F 25.5 °F 35.6 °F 100% 29.86 in 9.0 mi West 17.3 mph 28.8 mph 0.00 in Rain Light Rain
12:37 PM 37.4 °F 29.8 °F 37.4 °F 100% 29.87 in 9.0 mi West 11.5 mph - 0.01 in   Overcast
12:53 PM 37.9 °F 31.5 °F 37.0 °F 97% 29.78 in 10.0 mi SW 9.2 mph 25.3 mph 0.01 in Rain Light Rain
1:53 PM 39.0 °F 34.0 °F 39.0 °F 100% 29.78 in 10.0 mi South 6.9 mph - 0.00 in   Mostly Cloudy
2:30 PM 39.2 °F 35.9 °F - N/A% 29.86 in 10.0 mi SSW 4.6 mph - 0.00 in   Mostly Cloudy
2:42 PM 39.2 °F 33.0 °F - N/A% 29.87 in 10.0 mi SSW 9.2 mph - 0.00 in   Mostly Cloudy
2:53 PM 41.0 °F 35.8 °F - N/A% 29.78 in 10.0 mi SSW 8.1 mph - 0.00 in   Mostly Cloudy
3:53 PM 39.9 °F 33.9 °F 39.9 °F 100% 29.79 in 10.0 mi South 9.2 mph - N/A   Scattered Clouds
4:53 PM 41.0 °F 35.8 °F 36.0 °F 82% 29.79 in 10.0 mi SE 8.1 mph - 0.00 in   Mostly Cloudy
5:53 PM 39.9 °F 35.1 °F 36.0 °F 86% 29.80 in 10.0 mi SSE 6.9 mph - N/A   Overcast
6:05 PM 39.2 °F 31.6 °F 35.6 °F 87% 29.88 in 10.0 mi SE 12.7 mph 18.4 mph N/A   Mostly Cloudy
6:18 PM 39.2 °F 31.2 °F 35.6 °F 87% 29.88 in 10.0 mi SE 13.8 mph - N/A   Mostly Cloudy
6:53 PM 39.9 °F 37.8 °F 36.0 °F 86% 29.83 in 10.0 mi Variable 3.5 mph - 0.00 in Rain Light Rain
7:53 PM 39.9 °F 35.1 °F 36.0 °F 86% 29.85 in 10.0 mi ESE 6.9 mph - N/A   Overcast
8:18 PM 39.2 °F 37.0 °F 35.6 °F 87% 29.93 in 10.0 mi East 3.5 mph - N/A   Overcast
8:34 PM 39.2 °F 37.0 °F 35.6 °F 87% 29.95 in 10.0 mi East 3.5 mph - N/A   Overcast
8:53 PM 37.9 °F 34.4 °F 35.1 °F 89% 29.88 in 10.0 mi ESE 4.6 mph - N/A   Overcast
9:09 PM 37.4 °F 33.8 °F 35.6 °F 93% 29.95 in 10.0 mi East 4.6 mph - N/A   Overcast
9:28 PM 37.4 °F 34.9 °F 35.6 °F 93% 29.96 in 10.0 mi ESE 3.5 mph - N/A   Mostly Cloudy
9:53 PM 37.9 °F 34.4 °F 36.0 °F 93% 29.90 in 10.0 mi East 4.6 mph - N/A   Overcast
10:24 PM 37.4 °F 32.8 °F 35.6 °F 93% 29.97 in 10.0 mi East 5.8 mph - N/A   Mostly Cloudy
10:53 PM 37.0 °F 32.4 °F 35.1 °F 93% 29.97 in 10.0 mi East 5.8 mph - N/A   Overcast
11:40 PM 37.4 °F 34.9 °F 35.6 °F 93% 29.98 in 10.0 mi ENE 3.5 mph - N/A   Overcast
11:53 PM 37.0 °F 34.5 °F 36.0 °F 96% 29.99 in 10.0 mi East 3.5 mph - N/A   Overcast